Hourly Weather Malanje

Today, 8 August, Saturday

Time Temperature Precipitation Wind Pressure Humidity
00:00 +17°C° 0 mm 2 mps 666 mmHg 71%
01:00 +15°C° 0 mm 1 mps 666 mmHg 83%
02:00 +15°C° 0 mm 1 mps 666 mmHg 86%
03:00 +14°C° 0 mm 1 mps 666 mmHg 89%
04:00 +13°C° 0 mm 0 mps 666 mmHg 92%
05:00 +14°C° 0 mm 1 mps 666 mmHg 89%
06:00 +15°C° 0 mm 1 mps 667 mmHg 85%
07:00 +15°C° 0 mm 1 mps 667 mmHg 82%
08:00 +21°C° 0 mm 1 mps 669 mmHg 61%
09:00 +26°C° 0 mm 1 mps 670 mmHg 40%
10:00 +31°C° 0 mm 1 mps 671 mmHg 19%
11:00 +32°C° 0 mm 1 mps 670 mmHg 17%
12:00 +34°C° 0 mm 1 mps 670 mmHg 15%
13:00 +37°C° 0 mm 2 mps 669 mmHg 13%
14:00 +36°C° 0 mm 2 mps 668 mmHg 13%
15:00 +36°C° 0 mm 2 mps 667 mmHg 13%
16:00 +36°C° 0 mm 2 mps 667 mmHg 13%
17:00 +31°C° 0 mm 1 mps 666 mmHg 17%
18:00 +28°C° 0 mm 1 mps 666 mmHg 21%
19:00 +25°C° 0 mm 1 mps 666 mmHg 24%
20:00 +24°C° 0 mm 2 mps 666 mmHg 32%
21:00 +21°C° 0 mm 2 mps 666 mmHg 39%
22:00 +20°C° 0 mm 2 mps 666 mmHg 47%
23:00 +19°C° 0 mm 2 mps 666 mmHg 57%

Tomorrow, 9 August, Sunday

Time Temperature Precipitation Wind Pressure Humidity
00:00 +18°C° 0 mm 2 mps 665 mmHg 68%
01:00 +17°C° 0 mm 2 mps 665 mmHg 78%
02:00 +16°C° 0 mm 2 mps 665 mmHg 84%
03:00 +15°C° 0 mm 2 mps 665 mmHg 90%
04:00 +15°C° 0 mm 1 mps 664 mmHg 96%
05:00 +15°C° 0 mm 2 mps 665 mmHg 93%
06:00 +16°C° 0 mm 2 mps 665 mmHg 90%
07:00 +16°C° 0 mm 2 mps 666 mmHg 88%
08:00 +20°C° 0 mm 2 mps 667 mmHg 70%
09:00 +25°C° 0 mm 2 mps 668 mmHg 52%
10:00 +29°C° 0 mm 2 mps 669 mmHg 34%
11:00 +32°C° 0 mm 1 mps 668 mmHg 27%
12:00 +35°C° 0 mm 1 mps 668 mmHg 20%
13:00 +39°C° 0 mm 1 mps 668 mmHg 13%
14:00 +37°C° 0 mm 1 mps 667 mmHg 13%
15:00 +37°C° 0 mm 1 mps 666 mmHg 14%
16:00 +34°C° 0 mm 0 mps 666 mmHg 14%
17:00 +32°C° 0 mm 1 mps 665 mmHg 18%
18:00 +29°C° 0 mm 1 mps 665 mmHg 22%
19:00 +26°C° 0 mm 1 mps 665 mmHg 26%
20:00 +24°C° 0 mm 2 mps 665 mmHg 37%
21:00 +21°C° 0 mm 2 mps 665 mmHg 48%
22:00 +20°C° 0 mm 3 mps 665 mmHg 60%
23:00 +19°C° 0 mm 3 mps 665 mmHg 65%

Day after tomorrow, 10 August, Monday

Time Temperature Precipitation Wind Pressure Humidity
00:00 +18°C° 0 mm 3 mps 664 mmHg 70%
01:00 +17°C° 0 mm 2 mps 664 mmHg 75%
02:00 +16°C° 0 mm 3 mps 664 mmHg 81%
03:00 +16°C° 0 mm 3 mps 664 mmHg 87%
04:00 +14°C° 0 mm 3 mps 664 mmHg 94%
05:00 +14°C° 0 mm 3 mps 664 mmHg 91%
06:00 +16°C° 0 mm 3 mps 665 mmHg 87%
07:00 +16°C° 0 mm 3 mps 665 mmHg 84%
08:00 +20°C° 0 mm 2 mps 666 mmHg 68%
09:00 +25°C° 0 mm 2 mps 667 mmHg 51%
10:00 +28°C° 0 mm 2 mps 668 mmHg 35%
11:00 +31°C° 0 mm 1 mps 668 mmHg 28%
12:00 +34°C° 0 mm 1 mps 667 mmHg 22%
13:00 +37°C° 0 mm 1 mps 667 mmHg 15%
14:00 +37°C° 0 mm 1 mps 666 mmHg 15%
15:00 +37°C° 0 mm 1 mps 666 mmHg 14%
16:00 +36°C° 0 mm 1 mps 665 mmHg 14%
17:00 +34°C° 0 mm 2 mps 665 mmHg 20%
18:00 +29°C° 0 mm 2 mps 664 mmHg 27%
19:00 +26°C° 0 mm 3 mps 664 mmHg 33%
20:00 +24°C° 0 mm 3 mps 664 mmHg 42%
21:00 +21°C° 0 mm 3 mps 664 mmHg 52%
22:00 +19°C° 0 mm 4 mps 664 mmHg 61%
23:00 +18°C° 0 mm 3 mps 664 mmHg 69%

11 August, Tuesday

Time Temperature Precipitation Wind Pressure Humidity
00:00 +17°C° 0 mm 3 mps 664 mmHg 77%
01:00 +14°C° 0 mm 3 mps 663 mmHg 85%
02:00 +14°C° 0 mm 3 mps 664 mmHg 87%
03:00 +14°C° 0 mm 3 mps 664 mmHg 89%
04:00 +14°C° 0 mm 3 mps 664 mmHg 90%
05:00 +14°C° 0 mm 3 mps 664 mmHg 88%
06:00 +16°C° 0 mm 2 mps 665 mmHg 86%
07:00 +16°C° 0 mm 2 mps 666 mmHg 83%
08:00 +20°C° 0 mm 2 mps 667 mmHg 66%
09:00 +26°C° 0 mm 1 mps 667 mmHg 48%
10:00 +30°C° 0 mm 1 mps 668 mmHg 31%
11:00 +32°C° 0 mm 1 mps 668 mmHg 26%
12:00 +35°C° 0 mm 2 mps 667 mmHg 21%
13:00 +37°C° 0 mm 3 mps 667 mmHg 16%
14:00 +36°C° 0 mm 3 mps 666 mmHg 16%
15:00 +36°C° 0 mm 3 mps 665 mmHg 16%
16:00 +36°C° 0 mm 3 mps 665 mmHg 15%
17:00 +33°C° 0 mm 3 mps 665 mmHg 19%
18:00 +29°C° 0 mm 2 mps 665 mmHg 22%
19:00 +27°C° 0 mm 1 mps 664 mmHg 26%
20:00 +25°C° 0 mm 2 mps 665 mmHg 35%
21:00 +23°C° 0 mm 2 mps 665 mmHg 44%
22:00 +21°C° 0 mm 3 mps 665 mmHg 53%
23:00 +19°C° 0 mm 3 mps 664 mmHg 60%

12 August, Wednesday

Time Temperature Precipitation Wind Pressure Humidity
00:00 +18°C° 0 mm 3 mps 664 mmHg 67%
01:00 +17°C° 0 mm 3 mps 664 mmHg 74%
02:00 +16°C° 0 mm 2 mps 664 mmHg 82%
03:00 +15°C° 0 mm 2 mps 664 mmHg 89%
04:00 +14°C° 0 mm 2 mps 663 mmHg 96%
05:00 +14°C° 0 mm 2 mps 664 mmHg 93%
06:00 +15°C° 0 mm 1 mps 665 mmHg 90%
07:00 +15°C° 0 mm 1 mps 666 mmHg 87%
08:00 +21°C° 0 mm 1 mps 667 mmHg 67%
09:00 +27°C° 0 mm 1 mps 668 mmHg 46%
10:00 +32°C° 0 mm 1 mps 669 mmHg 26%
11:00 +35°C° 0 mm 1 mps 669 mmHg 22%
12:00 +39°C° 0 mm 1 mps 668 mmHg 17%
13:00 +39°C° 0 mm 0 mps 668 mmHg 13%
14:00 +37°C° 0 mm 0 mps 667 mmHg 14%
15:00 +36°C° 0 mm 0 mps 666 mmHg 15%
16:00 +34°C° 0 mm 0 mps 665 mmHg 16%
17:00 +34°C° 0 mm 1 mps 665 mmHg 18%
18:00 +32°C° 0 mm 1 mps 665 mmHg 20%
19:00 +30°C° 0 mm 1 mps 665 mmHg 23%
20:00 +27°C° 0 mm 2 mps 665 mmHg 32%
21:00 +25°C° 0 mm 3 mps 665 mmHg 41%
22:00 +22°C° 0 mm 4 mps 665 mmHg 50%
23:00 +20°C° 0 mm 3 mps 665 mmHg 61%

13 August, Thursday

Time Temperature Precipitation Wind Pressure Humidity
00:00 +19°C° 0 mm 3 mps 665 mmHg 72%
01:00 +17°C° 0 mm 3 mps 664 mmHg 83%
02:00 +16°C° 0 mm 3 mps 664 mmHg 88%
03:00 +15°C° 0 mm 2 mps 664 mmHg 92%
04:00 +15°C° 0 mm 2 mps 664 mmHg 96%
05:00 +15°C° 0 mm 2 mps 664 mmHg 93%
06:00 +15°C° 0 mm 2 mps 665 mmHg 90%
07:00 +16°C° 0 mm 2 mps 665 mmHg 87%
08:00 +21°C° 0 mm 2 mps 666 mmHg 68%
09:00 +26°C° 0 mm 2 mps 667 mmHg 48%
10:00 +31°C° 0 mm 2 mps 668 mmHg 28%
11:00 +34°C° 0 mm 1 mps 668 mmHg 23%
12:00 +37°C° 0 mm 1 mps 668 mmHg 18%
13:00 +41°C° 0 mm 1 mps 667 mmHg 14%
14:00 +40°C° 0 mm 1 mps 667 mmHg 14%
15:00 +39°C° 0 mm 1 mps 666 mmHg 14%
16:00 +36°C° 0 mm 1 mps 665 mmHg 14%
17:00 +33°C° 0 mm 1 mps 665 mmHg 17%
18:00 +30°C° 0 mm 1 mps 664 mmHg 20%
19:00 +27°C° 0 mm 1 mps 664 mmHg 23%
20:00 +25°C° 0 mm 2 mps 664 mmHg 31%
21:00 +24°C° 0 mm 2 mps 665 mmHg 38%
22:00 +22°C° 0 mm 3 mps 665 mmHg 46%
23:00 +20°C° 0 mm 3 mps 665 mmHg 57%
Show more